Regional Weather Roundup
Issued by NWS

Home | Current Version | Previous Version | Text Only | Print | Product List | Glossary Off
Versions: 1 2 3 4 5 6 7 8 9 10 11 12 13 14 15 16 17 18 19 20 21 22 23 24 25 26 27 28 29 30 31 32 33 34 35 36 37 38 39 40 41 42 43 44 45 46 47 48 49 50

000
ASUS43 KLOT 222008
RWRIL

ILLINOIS REGIONAL WEATHER ROUNDUP
NATIONAL WEATHER SERVICE CHICAGO/ROMEOVILLE IL
300 PM CDT FRI JUL 22 2016

NOTE: "FAIR" INDICATES FEW OR NO CLOUDS BELOW 12,000 FEET WITH NO
SIGNIFICANT WEATHER AND/OR OBSTRUCTIONS TO VISIBILITY.

* THESE STATIONS ARE NOT UNDER NWS QUALITY CONTROL. THEY ALSO MAY NOT
  REPORT WEATHER SUCH AS PRECIPITATION OR FOG.

ILZ001-002-007-009-015-016-024-222100-
NORTHWEST ILLINOIS

CITY           SKY/WX    TMP DP  RH WIND       PRES   REMARKS
MOLINE         CLOUDY    87  72  60 CALM      30.01F HX  93
STERLING*      MOSUNNY   85  75  72 CALM      30.02F HX  93
SAVANNA*       SUNNY     85  74  69 CALM      30.01F HX  93
$$

ILZ003-004-008-010-011-017-018-222100-
NORTH CENTRAL ILLINOIS

CITY           SKY/WX    TMP DP  RH WIND       PRES   REMARKS
ROCKFORD       MOSUNNY   88  75  65 W6        30.02F HX  97
FREEPORT*      SUNNY     84  75  73 W5        30.04F HX  92
ROCHELLE*      MOSUNNY   84  75  75 CALM      30.03F HX  92
DE KALB*       CLOUDY    84  75  75 NW6       30.04F HX  92
$$

ILZ005-006-012>014-019>023-222100-
NORTHEAST ILLINOIS

CITY           SKY/WX    TMP DP  RH WIND       PRES   REMARKS
CHICAGO-OHARE  PTSUNNY   87  74  64 NW10      30.00F HX  95
CHICAGO-MIDWAY PTSUNNY   87  71  58 W9        30.00F HX  93
AURORA         MOSUNNY   86  75  69 W9        30.02F HX  95
LANSING*       MOSUNNY   86  70  59 W7        30.01F HX  90
JOLIET*        PTSUNNY   86  74  67 W7        30.01F HX  95
WAUKEGAN       MOSUNNY   90  73  57 SW6       29.99F HX  98
DUPAGE AIRPORT MOSUNNY   86  73  65 W10       30.02F HX  93
WHEELING       SUNNY     88  71  57 W8        30.01F HX  94
MORRIS*        PTSUNNY   84  74  71 W6        30.01F HX  91
ROMEOVILLE*    MOSUNNY   84  72  65 W7        30.02F HX  89
NORTHERLY ISL    N/A     86  68  54 W9          N/A  HX  89
$$

LMZ740>746-222100-
SOUTHERN LAKE MICHIGAN

STATION/POSITION SKY/WX   TEMP    WIND        PRES    VSBY  WAVE
                          AIR SEA DIR/SP/G                  HT/PER
                          (F)     (DEG/KT/KT) (MB)    (MI)  (FT/S)
SOUTHERN BUOY              73 72  190/  8/  8 1015.1          1/ 3
WILMETTE HARBOR            79 69  100/  4/  4   N/A           0
HARRISON CRIB              85     240/  4/  6   N/A
BURNHAM HARBOR             87     260/  9/ 13   N/A
CALUMET HARBOR             84     210/  7/ 11 1015.9F
BURNS HARBOR               79     310/  6/  8 1016.9F
MICHIGAN CITY              78     240/  3/  4   N/A
MICHIGAN CITY 6N           81 76   CALM  /  2   N/A           1
ST. JOSEPH                 75 74  180/  4/  4 1016.2F         1
$$

ILZ025>027-034>036-040-047-049-050-058-095>099-222100-
WEST-CENTRAL ILLINOIS

CITY           SKY/WX    TMP DP  RH WIND       PRES   REMARKS
QUINCY         MOSUNNY   89  74  60 CALM      30.02S HX  98
GALESBURG*     MOSUNNY   86  73  66 S6        30.03F HX  93
MACOMB*        MOSUNNY   86  73  64 CALM      30.04F HX  92
JACKSONVILLE*  CLOUDY    85  74  68 CALM      30.04F HX  92
PITTSFIELD*    MOSUNNY   85  76  75 E3        30.04F HX  94
$$

ILZ028>032-037-038-041>044-048-051>054-059>061-222100-
CENTRAL ILLINOIS

CITY           SKY/WX    TMP DP  RH WIND       PRES   REMARKS
PONTIAC        MOSUNNY   84  76  76 W3        30.03F HX  92
BLOOMINGTON    PTSUNNY   86  72  62 VRB3      30.05F HX  92
DECATUR        MOSUNNY   87  71  58 VRB5      30.03F HX  93
PEORIA         SUNNY     87  73  62 CALM      30.03F HX  94
LACON*         MOSUNNY   85  73  67 CALM      30.01F HX  91
LINCOLN*       MOSUNNY   85  75  71 CALM      30.04S HX  93
SPRINGFIELD    MOSUNNY   88  72  58 CALM      30.03F HX  94
TAYLORVILLE    CLOUDY    84  72  67 N5        30.04S HX  90
$$

ILZ033-039-045-046-055>057-062-063-222100-
EAST-CENTRAL ILLINOIS

CITY           SKY/WX    TMP DP  RH WIND       PRES   REMARKS
CHAMPAIGN      MOSUNNY   84  72  67 W5        30.05F HX  89
MATTOON        CLOUDY    84  70  62 N6        30.03F HX  88
PARIS*         PTSUNNY   85  76  73 CALM      30.05S HX  94
$$

ILZ079-100>102-222100-
SOUTHWEST ILLINOIS

CITY           SKY/WX    TMP DP  RH WIND       PRES   REMARKS
BELLEVILLE     CLOUDY    84  74  73 CALM      30.03F HX  91
CAHOKIA*       CLOUDY    85  70  60 SE3       30.03F HX  89
SPARTA*        CLOUDY    82  73  73 CALM      30.05F HX  88
$$

ILZ064>066-069>071-074>076-080>082-084>086-088>090-092>094-222100-
SOUTH-CENTRAL ILLINOIS

CITY           SKY/WX    TMP DP  RH WIND       PRES   REMARKS
CARBONDALE     CLOUDY    85  75  72 CALM      30.03S HX  93
CAIRO*         CLOUDY    82  78  87 E3        30.02F HX  90
EFFINGHAM*     PTSUNNY   88  75  65 NE6       30.05S HX  97
MARION         PTSUNNY   86  79  79 MISG      30.03F HX  99
MT. VERNON     MOSUNNY   88  73  62 CALM      30.03F HX  96
CENTRALIA*     CLOUDY    85  74  70 CALM      30.03F HX  92
SALEM*         CLOUDY    85  72  64 CALM      30.03F HX  91
METROPOLIS*    CLOUDY    81  76  85 CALM      30.03F HX  87
$$

ILZ067-068-072-073-078-083-087-091-222100-
SOUTHEAST ILLINOIS

CITY           SKY/WX    TMP DP  RH WIND       PRES   REMARKS
LAWRENCEVILLE  PTSUNNY   83  75  77 CALM      30.04F HX  90
FLORA*         CLOUDY    83  75  76 CALM      30.04S HX  91
FAIRFIELD*     CLOUDY    83  76  81 N3        30.03S HX  91
HARRISBURG*    CLOUDY    83  78  85 W3        30.03F HX  94
ROBINSON*      PTSUNNY   85  75  71 SW3       30.04S HX  94
CARMI*         CLOUDY    84  78  82 CALM      30.02F HX  95
$$

ABBREVIATIONS USED IN REMARKS
   TC - TEMPERATURE IN CELSIUS
  WCI - WIND CHILL INDEX
   HX - HEAT INDEX
  VSB - VISIBILITY
$$





USA.gov is the U.S. government's official web portal to all federal, state and local government web resources and services.